ECMWFNIL_850_temp_132.txt.gz
Temp
16 16 16 15 15 15 16 16 16 16 16 15 15 15 15 14 14 14 14 14 14 14 13 13 13 13 13 13 13 13 13 13 12 12 12 12 12 12 12 12 12 12
16 16 15 15 15 15 15 16 16 16 16 15 15 15 14 14 14 14 14 14 13 13 13 13 13 13 13 13 13 13 13 13 13 13 13 13 13 13 13 13 13 13
16 16 16 16 15 15 16 16 16 16 15 15 15 14 14 14 14 14 13 13 13 13 13 13 13 13 13 13 13 13 13 13 14 14 14 13 13 13 13 13 13 13
16 16 16 16 15 15 16 16 16 16 15 15 15 14 14 14 14 13 13 13 13 13 13 13 13 13 13 13 13 13 13 14 14 14 14 14 14 13 13 13 13 13
16 16 16 16 15 15 15 16 16 16 15 15 15 14 14 14 14 13 13 13 13 13 13 13 13 13 13 13 13 13 14 14 14 14 14 14 14 13 13 13 13 12
16 16 16 15 15 15 15 16 16 16 15 15 15 14 14 14 14 14 14 14 13 13 13 13 13 13 13 13 13 13 13 14 14 14 14 14 14 13 13 13 12 12
16 16 16 15 15 15 15 15 16 15 15 15 14 14 14 14 14 14 14 14 13 13 13 13 13 13 13 13 13 13 13 14 14 14 14 13 13 13 13 13 12 12
16 16 16 15 15 15 15 15 15 15 15 15 14 14 14 14 13 14 14 14 13 13 13 12 12 13 13 13 13 13 13 13 14 13 13 13 13 13 13 12 12 12
16 15 15 15 15 15 15 15 15 15 15 14 14 14 14 13 13 14 14 14 13 13 13 12 12 13 13 13 13 13 13 13 13 13 13 13 13 13 12 12 12 12
15 15 15 15 15 15 15 15 15 15 14 14 14 14 14 13 13 13 13 13 13 13 13 12 12 13 12 12 12 12 12 12 12 12 13 13 12 12 12 12 12 12
15 15 14 14 15 15 15 14 14 14 14 14 14 14 13 13 13 13 13 13 13 13 13 12 12 12 12 12 12 12 11 11 12 12 12 12 12 11 11 11 11 11
14 14 14 14 14 14 14 14 14 14 14 14 14 14 13 13 13 13 13 13 13 13 12 12 12 12 11 11 11 11 11 11 11 12 12 12 11 11 11 11 11 10
14 14 13 13 13 14 14 14 13 13 14 14 14 13 13 12 12 12 12 12 13 12 12 12 11 11 11 11 11 11 10 10 11 11 11 11 11 10 10 10 10 10
14 14 13 13 13 13 13 13 13 13 13 14 13 13 13 12 12 12 12 12 12 12 12 11 11 11 10 10 11 10 10 10 11 11 11 11 10 10 10 10 10 10
14 14 13 13 13 14 13 13 13 13 13 13 13 13 13 12 11 11 11 12 12 12 12 11 11 11 10 10 10 10 10 11 11 11 11 10 10 10 10 10 10 9
14 13 13 13 13 14 13 13 13 13 13 13 13 13 12 12 11 11 11 11 11 12 11 11 11 10 10 10 11 11 11 11 11 11 10 10 10 10 10 10 9 9
14 13 13 13 14 14 13 13 13 13 13 13 13 13 12 12 11 11 11 11 11 11 11 11 11 10 10 10 11 11 10 10 10 10 10 10 10 10 10 9 9 9
13 13 13 13 13 14 13 13 13 13 13 13 13 13 12 12 12 11 11 12 12 12 11 11 11 10 10 10 10 10 10 10 10 10 10 10 10 10 9 9 9 9
13 13 13 13 13 13 13 14 14 14 14 13 13 13 12 12 12 12 12 12 12 11 11 11 10 10 10 10 10 10 10 10 10 10 10 10 10 9 9 9 9 9
13 13 13 13 13 13 14 14 14 14 14 14 13 13 13 12 12 12 12 12 11 11 11 11 10 10 10 10 10 10 10 10 10 10 10 9 9 9 9 9 9 9
13 13 13 13 13 13 13 14 14 14 14 13 13 13 13 13 13 12 12 11 11 11 11 11 10 10 10 10 10 10 10 10 9 9 9 9 8 8 8 8 8 8
13 13 13 13 13 13 13 14 14 14 14 13 13 13 13 13 12 12 12 11 11 11 11 11 10 10 10 10 10 10 10 10 9 9 9 8 8 8 8 8 8 8
13 13 13 13 13 13 13 14 14 14 14 13 13 13 13 13 12 12 12 12 11 11 11 11 10 10 10 10 10 10 10 9 9 9 8 8 8 8 8 8 7 8
13 13 13 13 13 13 13 13 14 14 14 13 13 13 13 12 12 12 12 12 11 11 11 11 10 10 10 10 9 9 9 9 9 9 8 8 8 8 8 7 7 7
13 13 13 13 13 13 13 13 13 13 13 13 13 13 13 12 13 13 13 12 11 11 11 11 10 10 9 9 9 9 9 9 8 8 8 8 8 8 7 7 7 7
13 13 13 13 13 13 13 13 13 13 13 13 13 13 13 13 13 14 13 12 11 11 11 10 10 10 9 9 9 8 8 8 8 8 8 8 8 8 7 7 7 7

ECMWFNIL_850_temp_138.txt.gz
Temp
21 20 18 16 15 15 15 15 15 15 14 14 14 15 16 16 15 15 15 15 15 14 14 14 14 14 14 14 14 14 14 13 13 13 13 13 13 13 12 13 12 12
20 20 19 17 15 15 15 15 15 15 15 15 16 16 16 16 16 15 15 15 15 14 14 14 14 14 14 14 14 14 13 13 13 13 13 13 13 13 12 12 12 12
20 20 20 19 17 15 15 15 15 15 16 16 16 16 16 16 16 15 15 15 15 14 14 14 14 14 14 14 14 13 13 13 13 13 13 13 12 12 12 12 12 12
18 20 21 20 18 15 15 16 15 15 16 16 16 15 15 15 16 16 15 15 14 14 14 14 14 14 13 13 13 13 13 13 12 12 12 12 11 11 11 11 11 11
16 18 20 20 19 16 15 16 15 15 16 17 16 15 15 15 16 15 15 15 14 14 14 14 14 14 13 13 13 13 12 12 12 12 12 11 11 11 11 11 11 11
16 16 18 19 18 16 15 16 15 15 16 17 16 15 15 16 16 15 15 15 14 14 14 14 14 13 13 13 12 12 12 12 12 12 12 11 11 12 12 12 11 12
15 16 16 17 17 16 15 15 15 15 16 17 16 16 16 16 16 15 15 15 14 14 14 14 14 13 13 12 12 12 12 12 12 12 13 12 12 13 13 13 13 12
15 15 16 16 17 17 16 15 15 15 16 17 16 16 16 16 16 15 15 14 14 14 14 14 14 13 13 12 12 12 12 12 12 12 13 13 13 14 14 14 13 13
15 15 15 15 17 17 16 15 15 15 16 16 16 16 16 16 16 15 15 14 14 14 14 13 13 13 13 13 12 12 12 12 12 12 13 13 14 14 14 14 14 13
15 15 15 16 16 16 16 15 15 15 16 16 16 16 16 16 15 15 15 14 14 14 14 13 13 13 13 13 12 12 12 12 12 13 13 13 14 14 14 13 13 13
15 15 15 16 15 15 16 16 15 15 16 16 16 16 16 16 15 16 15 14 14 14 13 13 13 13 13 13 12 12 12 12 12 13 13 13 13 13 13 13 13 13
15 15 15 15 15 15 16 16 15 15 15 16 16 15 16 16 16 16 15 14 14 14 14 14 13 13 13 12 12 12 11 12 12 13 13 13 13 13 13 13 13 13
15 15 15 15 15 15 16 15 15 15 15 16 16 15 15 16 16 16 15 14 14 14 14 14 13 13 13 12 12 11 11 12 12 13 13 13 13 13 13 12 12 12
15 15 15 15 15 15 15 15 15 15 15 15 16 15 14 15 16 16 15 14 14 14 14 14 13 13 13 12 12 11 11 12 12 12 13 13 12 12 12 12 12 12
15 14 14 15 14 14 15 15 15 15 15 15 15 15 14 15 16 16 15 14 14 14 14 14 13 13 13 13 12 12 12 12 12 12 12 12 12 12 12 12 12 12
15 15 14 14 14 15 15 15 14 15 14 14 15 15 14 15 16 16 15 14 14 14 14 14 13 13 13 13 13 13 12 12 12 12 12 12 12 11 11 11 11 12
15 15 14 14 14 15 15 14 14 14 14 14 14 14 14 15 15 16 15 14 14 14 14 14 13 13 13 13 13 13 12 12 12 12 12 12 12 12 11 11 11 11
15 14 14 14 14 14 14 14 14 14 14 14 14 14 15 14 15 16 15 14 14 14 14 14 13 13 13 13 13 12 11 11 12 12 12 12 12 12 11 11 11 11
15 14 14 14 14 14 14 14 14 14 14 14 14 14 14 14 15 16 15 14 14 14 14 13 13 12 12 12 12 12 11 11 11 12 12 12 12 12 11 11 11 11
14 14 14 14 14 14 14 14 14 14 14 14 14 14 14 14 15 15 15 14 14 14 14 13 13 12 11 11 11 11 11 11 11 11 12 12 12 12 11 11 11 11
14 14 14 14 14 14 14 14 14 14 14 14 14 14 14 14 15 15 15 14 14 14 14 13 13 12 11 11 11 11 11 10 10 11 11 11 11 11 11 11 11 11
14 14 14 14 14 14 14 14 14 14 14 13 13 14 14 14 14 14 14 14 14 14 13 13 13 12 11 11 11 10 10 10 10 10 10 11 11 11 11 11 11 11
14 14 14 14 14 14 14 14 14 14 14 13 13 13 13 14 14 14 14 14 14 14 13 13 12 12 11 11 10 10 10 10 9 10 10 10 11 11 11 10 10 10
14 14 14 14 14 14 14 14 14 14 14 13 14 13 13 13 14 14 14 14 14 13 13 12 12 12 12 11 10 10 10 10 10 10 10 10 10 11 10 10 10 10
14 14 14 14 14 14 14 14 14 14 13 14 14 14 13 13 14 14 14 14 14 13 13 13 13 13 12 11 11 10 10 10 10 10 10 10 10 10 10 10 10 10
14 14 14 14 14 14 14 14 14 14 13 14 14 14 13 13 13 14 14 14 14 14 14 13 13 13 12 12 11 11 10 10 10 10 10 10 10 10 10 9 9 10

ECMWFNIL_850_temp_141.txt.gz
Temp
17 17 17 18 19 19 19 17 15 15 15 15 15 14 14 14 14 14 15 16 16 16 15 14 15 15 15 15 14 14 14 14 14 14 14 14 14 14 14 14 14 13
17 17 17 17 18 18 19 18 16 16 15 15 15 14 14 14 14 14 15 16 16 16 15 15 15 15 15 15 14 14 14 14 14 14 14 14 14 14 14 14 14 13
17 17 17 17 17 18 18 18 17 16 15 15 15 15 15 15 15 15 16 16 16 16 15 15 15 15 15 14 14 14 14 14 14 14 14 14 14 14 14 14 13 13
17 17 17 17 17 17 18 18 17 16 16 15 15 15 15 15 15 16 16 16 16 16 15 15 15 15 15 14 14 14 14 14 14 14 13 14 14 14 14 13 13 13
17 17 17 17 17 17 17 17 17 16 16 16 15 15 15 16 16 15 16 16 16 16 15 15 15 15 15 14 14 14 14 14 14 13 13 13 14 13 13 13 13 13
17 17 17 17 17 17 17 17 17 16 16 16 16 15 15 15 15 15 16 16 16 16 15 15 15 14 14 14 14 14 14 13 13 13 13 13 13 13 12 12 12 12
17 17 17 17 17 17 17 16 16 16 16 16 16 15 15 15 16 16 16 16 16 16 15 15 15 14 14 14 14 14 13 13 13 13 12 12 12 12 12 12 12 12
17 16 16 16 17 17 17 16 16 16 16 16 16 16 16 15 16 16 16 15 16 16 15 15 15 14 14 14 14 13 13 13 13 13 12 12 12 13 12 12 12 12
17 17 16 17 17 17 17 17 16 16 16 16 16 16 16 16 16 16 15 15 16 16 16 15 15 15 14 14 13 13 13 13 12 12 12 12 12 13 13 13 13 12
17 17 17 17 17 17 17 17 16 16 16 16 16 16 16 16 16 16 15 15 15 16 16 15 15 15 14 13 13 13 13 13 12 12 12 12 12 13 13 13 12 11
17 16 17 17 17 17 16 17 16 16 16 16 16 16 16 16 16 15 15 15 15 16 16 16 15 14 14 13 13 12 13 13 12 12 12 12 12 12 13 12 11 11
17 16 16 17 16 17 17 16 16 16 16 16 16 16 16 16 16 16 16 15 15 16 16 15 15 14 13 13 13 12 13 13 12 12 12 12 12 12 12 11 10 11
17 16 16 16 16 17 16 16 16 16 16 16 16 16 16 16 16 16 16 16 15 16 16 15 14 14 14 13 13 13 13 12 12 12 12 12 12 11 11 11 11 12
18 17 16 16 16 17 16 16 16 16 16 16 16 16 16 16 16 16 16 16 15 15 16 15 14 14 14 13 13 13 13 12 12 12 12 12 11 10 11 12 12 12
18 17 16 16 16 16 16 16 16 16 16 16 15 15 16 16 16 16 16 16 15 15 15 15 15 14 14 13 13 13 12 12 12 11 12 11 10 10 12 12 12 12
18 17 17 16 16 16 16 16 16 16 16 16 15 15 16 16 16 16 16 16 16 15 15 15 15 14 14 13 13 12 12 12 12 11 11 10 10 11 12 12 12 11
17 17 17 17 16 16 16 16 16 16 16 16 15 15 16 16 15 16 16 16 15 15 15 15 15 14 14 13 13 12 12 12 11 11 11 10 10 12 12 12 12 11
17 17 17 17 17 16 16 16 16 16 15 15 15 15 15 15 15 15 16 15 15 15 15 15 14 14 14 13 13 13 12 12 11 11 10 9 10 12 12 12 12 11
17 17 17 18 17 16 16 16 16 15 15 15 15 15 15 15 15 15 15 15 15 15 15 15 14 14 13 13 14 13 13 12 11 11 10 9 10 12 12 11 11 11
18 18 18 18 17 16 16 15 15 15 15 15 15 15 15 15 14 14 15 15 14 14 14 14 14 14 14 15 15 14 13 13 12 11 10 10 10 11 11 11 11 10
18 17 18 17 16 16 15 15 15 15 15 14 15 14 14 14 14 14 14 14 14 14 14 13 14 15 16 16 15 14 13 13 12 11 10 10 9 10 11 11 10 10
17 17 17 17 16 15 15 15 15 15 14 14 14 14 14 14 14 14 14 14 13 13 13 13 14 16 16 16 15 14 13 13 12 11 10 10 9 9 10 10 10 10
17 17 17 16 16 15 15 15 15 15 14 14 14 14 14 14 14 14 14 13 13 13 13 13 14 16 16 15 15 14 13 12 12 11 10 9 9 9 9 10 10 10
17 17 17 16 15 15 15 15 15 14 14 14 14 14 14 14 14 14 13 13 13 13 13 13 15 16 16 15 15 14 12 12 12 11 10 10 9 8 9 10 10 10
17 18 17 16 15 15 15 15 15 14 14 14 14 14 14 14 14 13 13 13 13 13 13 13 14 16 15 15 14 13 12 12 11 10 10 10 9 8 9 9 9 9
17 17 17 15 15 15 15 15 14 14 14 14 14 14 14 14 14 13 13 13 13 13 12 13 14 15 15 15 14 13 13 12 12 10 9 9 9 9 9 9 9 9

ECMWFNIL_850_temp_144.txt.gz
Temp
18 18 18 17 17 18 18 18 19 19 19 20 19 19 18 17 17 17 17 16 16 17 17 16 16 16 16 16 16 16 16 16 16 15 14 14 14 14 14 14 14 14
18 18 17 17 17 17 18 18 18 18 19 19 19 19 18 17 17 17 17 17 17 17 17 16 16 16 16 16 16 16 16 16 16 15 15 15 15 14 14 14 14 14
19 17 17 17 17 17 17 17 18 18 18 18 19 18 18 17 17 17 17 17 17 17 17 17 16 16 16 16 16 16 16 16 16 15 15 15 15 15 14 14 14 14
18 17 17 17 18 18 17 17 17 17 17 18 18 18 18 17 17 17 17 17 17 17 17 17 17 16 16 16 16 16 15 15 15 15 15 15 15 14 14 14 14 14
18 18 18 17 17 18 18 17 17 17 17 17 17 17 17 17 17 17 17 17 17 17 17 17 17 16 16 16 16 16 15 15 15 15 15 15 15 14 14 14 13 13
18 18 18 18 18 17 18 18 17 17 17 17 17 17 17 17 16 17 17 17 17 17 17 17 17 17 16 16 16 15 15 15 15 15 14 14 14 14 14 13 13 13
19 19 18 19 18 18 18 18 17 17 17 16 16 17 17 16 16 16 16 17 17 17 16 17 17 17 16 16 15 15 15 15 15 14 14 14 14 14 13 13 13 13
20 20 19 20 20 19 18 18 17 17 17 17 16 16 16 16 16 16 16 16 16 16 16 17 18 17 16 16 16 16 15 15 14 14 14 13 13 13 13 13 13 13
20 20 21 22 22 20 18 18 18 17 17 17 16 16 16 16 16 16 16 15 15 15 16 16 17 17 17 16 16 16 15 15 15 14 14 13 13 13 13 13 13 13
19 19 21 23 22 20 18 18 18 17 17 17 16 16 16 16 16 16 15 15 15 15 15 16 17 17 16 16 16 16 15 15 15 14 14 14 13 13 13 13 13 13
20 20 21 22 21 20 18 18 17 17 17 17 17 16 16 16 16 16 15 15 15 15 15 15 16 16 16 16 16 15 15 15 14 14 14 14 13 13 13 13 13 13
20 20 20 21 21 19 18 17 17 17 17 17 17 16 16 16 16 16 16 15 15 15 15 15 15 16 16 16 16 15 15 14 14 14 14 13 13 13 13 13 13 13
20 20 20 20 20 19 17 17 17 17 17 17 17 16 16 16 16 16 16 16 15 15 15 15 15 15 15 15 16 15 15 14 14 14 13 13 13 13 13 13 13 13
20 20 20 20 20 19 17 17 17 17 17 17 16 16 16 16 16 16 16 16 16 16 16 15 15 15 15 15 16 15 14 14 14 14 13 13 13 13 12 12 13 13
20 20 20 20 19 18 17 17 17 17 17 16 16 16 16 16 16 16 16 16 16 16 16 16 15 15 15 15 15 15 14 14 14 14 13 13 13 13 12 12 12 12
19 19 19 19 19 18 18 17 17 17 17 16 16 16 16 16 16 16 16 16 16 16 16 16 16 15 15 15 15 15 14 14 14 14 13 13 13 13 12 12 12 12
18 19 19 19 18 18 18 17 17 17 17 16 16 16 16 16 16 16 16 16 16 16 16 16 16 16 15 15 15 15 15 14 14 14 13 13 13 12 12 12 12 12
19 18 18 18 18 18 18 18 17 17 17 16 16 16 16 16 16 16 16 16 16 16 16 16 16 16 15 15 15 15 14 14 14 14 13 13 13 12 12 12 12 11
19 18 18 18 18 18 18 18 17 17 17 16 16 16 16 16 16 16 16 16 16 16 16 16 16 16 15 15 15 15 14 14 14 14 13 13 13 12 12 12 11 11
18 18 18 17 17 18 18 18 17 17 17 16 16 16 16 16 16 16 16 16 16 16 16 16 16 16 16 15 15 15 14 14 14 14 14 13 13 12 12 11 11 10
19 19 18 17 17 17 17 17 17 17 17 16 16 16 16 16 16 16 16 16 16 16 16 16 16 16 16 15 15 15 14 14 13 14 14 13 13 12 12 12 11 10
19 19 19 18 17 17 17 17 17 17 17 17 16 16 16 16 16 16 16 16 16 16 16 16 16 16 16 15 15 15 14 14 13 13 13 13 12 12 12 12 11 11
19 19 20 20 18 17 17 17 17 17 17 16 16 16 16 16 16 16 16 15 16 16 16 16 16 16 15 15 15 15 14 14 13 13 13 13 12 12 12 11 11 11
19 19 19 19 19 17 17 17 17 17 17 16 17 17 17 16 16 16 15 15 15 16 16 15 15 15 15 15 15 15 14 14 13 13 13 12 12 12 11 11 11 11
19 19 18 18 18 18 17 17 17 17 17 17 17 17 17 16 16 15 15 15 15 15 15 15 15 15 15 15 15 15 14 14 14 13 13 12 12 12 11 11 10 10
20 19 18 18 18 18 17 17 18 18 17 17 17 17 16 16 15 15 15 15 15 15 15 15 15 14 14 14 14 14 14 14 13 13 13 12 12 12 12 11 11 10